TimeEST,TemperatureF,Dew PointF,Humidity,Sea Level PressureIn,VisibilityMPH,Wind Direction,Wind SpeedMPH,Gust SpeedMPH,PrecipitationIn,Events,Conditions,WindDirDegrees,DateUTC
12:15 AM,33.8,15.8,48,30.29,10.0,NW,10.4,-,N/A,,Clear,310,2013-11-24 05:15:00
12:35 AM,32.0,14.0,48,30.30,10.0,NNW,12.7,-,N/A,,Clear,330,2013-11-24 05:35:00
12:55 AM,32.0,14.0,48,30.30,10.0,NNW,11.5,21.9,N/A,,Clear,330,2013-11-24 05:55:00
1:15 AM,32.0,14.0,48,30.30,10.0,NW,8.1,17.3,N/A,,Clear,320,2013-11-24 06:15:00
1:35 AM,32.0,14.0,48,30.30,10.0,North,10.4,-,N/A,,Clear,350,2013-11-24 06:35:00
1:55 AM,32.0,12.2,44,30.31,10.0,North,13.8,21.9,N/A,,Clear,350,2013-11-24 06:55:00
2:15 AM,30.2,10.4,44,30.32,10.0,North,11.5,23.0,N/A,,Clear,350,2013-11-24 07:15:00
2:35 AM,30.2,10.4,44,30.33,10.0,NNW,12.7,18.4,N/A,,Clear,340,2013-11-24 07:35:00
2:55 AM,30.2,12.2,47,30.34,10.0,NNW,11.5,16.1,N/A,,Clear,330,2013-11-24 07:55:00
3:15 AM,30.2,12.2,47,30.34,10.0,NNW,10.4,16.1,N/A,,Clear,340,2013-11-24 08:15:00
3:35 AM,30.2,10.4,44,30.33,10.0,NNW,8.1,18.4,N/A,,Clear,340,2013-11-24 08:35:00
3:55 AM,28.4,10.4,47,30.34,10.0,NNW,11.5,17.3,N/A,,Clear,340,2013-11-24 08:55:00
4:15 AM,28.4,10.4,47,30.34,10.0,North,9.2,18.4,N/A,,Clear,350,2013-11-24 09:15:00
4:35 AM,28.4,8.6,43,30.35,10.0,NNW,10.4,24.2,N/A,,Clear,340,2013-11-24 09:35:00
4:55 AM,28.4,10.4,47,30.36,10.0,North,8.1,21.9,N/A,,Clear,360,2013-11-24 09:55:00
5:15 AM,28.4,8.6,43,30.37,10.0,North,10.4,17.3,N/A,,Clear,350,2013-11-24 10:15:00
5:35 AM,26.6,8.6,47,30.38,10.0,North,6.9,17.3,N/A,,Clear,360,2013-11-24 10:35:00
5:55 AM,26.6,8.6,47,30.39,10.0,North,5.8,-,N/A,,Clear,360,2013-11-24 10:55:00
6:15 AM,26.6,8.6,47,30.40,10.0,NNW,6.9,-,N/A,,Clear,340,2013-11-24 11:15:00
6:35 AM,26.6,8.6,47,30.41,10.0,North,10.4,18.4,N/A,,Clear,360,2013-11-24 11:35:00
6:55 AM,26.6,8.6,47,30.42,10.0,North,10.4,18.4,N/A,,Clear,350,2013-11-24 11:55:00
7:15 AM,26.6,6.8,43,30.43,10.0,NNW,9.2,-,N/A,,Clear,340,2013-11-24 12:15:00
7:35 AM,26.6,6.8,43,30.43,10.0,North,10.4,-,N/A,,Clear,350,2013-11-24 12:35:00
7:55 AM,26.6,8.6,47,30.44,10.0,North,10.4,-,N/A,,Clear,350,2013-11-24 12:55:00
8:15 AM,26.6,8.6,47,30.45,10.0,North,8.1,-,N/A,,Clear,350,2013-11-24 13:15:00
8:35 AM,28.4,8.6,43,30.47,10.0,NNW,9.2,-,N/A,,Clear,340,2013-11-24 13:35:00
8:55 AM,28.4,8.6,43,30.47,10.0,North,11.5,-,N/A,,Clear,360,2013-11-24 13:55:00
9:15 AM,30.2,6.8,37,30.48,10.0,NNW,13.8,23.0,N/A,,Clear,340,2013-11-24 14:15:00
9:35 AM,30.2,5.0,34,30.48,10.0,NNW,19.6,25.3,N/A,,Clear,340,2013-11-24 14:35:00
9:55 AM,30.2,5.0,34,30.49,10.0,North,15.0,23.0,N/A,,Clear,350,2013-11-24 14:55:00
10:15 AM,32.0,5.0,32,30.50,10.0,North,11.5,24.2,N/A,,Clear,350,2013-11-24 15:15:00
10:35 AM,32.0,5.0,32,30.50,10.0,North,12.7,23.0,N/A,,Clear,350,2013-11-24 15:35:00
10:55 AM,32.0,5.0,32,30.50,10.0,North,16.1,21.9,N/A,,Clear,350,2013-11-24 15:55:00
11:15 AM,32.0,3.2,30,30.49,10.0,North,15.0,24.2,N/A,,Clear,350,2013-11-24 16:15:00
11:35 AM,32.0,3.2,30,30.49,10.0,North,11.5,21.9,N/A,,Clear,350,2013-11-24 16:35:00
11:55 AM,33.8,1.4,25,30.47,10.0,NNW,10.4,18.4,N/A,,Clear,340,2013-11-24 16:55:00
12:15 PM,33.8,1.4,25,30.47,10.0,NNW,11.5,25.3,N/A,,Clear,340,2013-11-24 17:15:00
12:35 PM,33.8,-0.4,23,30.46,10.0,NNW,15.0,26.5,N/A,,Clear,340,2013-11-24 17:35:00
12:55 PM,33.8,-0.4,23,30.46,10.0,North,15.0,23.0,N/A,,Clear,350,2013-11-24 17:55:00
1:15 PM,33.8,-2.2,22,30.46,10.0,North,10.4,23.0,N/A,,Clear,350,2013-11-24 18:15:00
1:35 PM,33.8,-2.2,22,30.45,10.0,NW,10.4,20.7,N/A,,Clear,320,2013-11-24 18:35:00
1:55 PM,35.6,-2.2,20,30.44,10.0,North,11.5,18.4,N/A,,Clear,360,2013-11-24 18:55:00
2:15 PM,35.6,-2.2,20,30.44,10.0,NNW,10.4,16.1,N/A,,Clear,340,2013-11-24 19:15:00
2:35 PM,35.6,-2.2,20,30.44,10.0,North,10.4,16.1,N/A,,Clear,360,2013-11-24 19:35:00
2:55 PM,35.6,-4.0,18,30.44,10.0,North,8.1,16.1,N/A,,Clear,350,2013-11-24 19:55:00
3:15 PM,35.6,-2.2,20,30.45,10.0,NW,8.1,-,N/A,,Clear,310,2013-11-24 20:15:00
3:35 PM,35.6,-2.2,20,30.45,10.0,North,10.4,-,N/A,,Clear,10,2013-11-24 20:35:00
3:55 PM,33.8,-4.0,20,30.45,10.0,North,10.4,16.1,N/A,,Clear,360,2013-11-24 20:55:00
4:15 PM,33.8,-2.2,22,30.46,10.0,NW,6.9,-,N/A,,Clear,320,2013-11-24 21:15:00
4:35 PM,32.0,-2.2,23,30.46,10.0,NW,4.6,-,N/A,,Clear,320,2013-11-24 21:35:00
4:55 PM,32.0,-0.4,25,30.46,10.0,NNW,4.6,-,N/A,,Clear,330,2013-11-24 21:55:00
5:15 PM,32.0,-0.4,25,30.46,10.0,NNW,5.8,-,N/A,,Clear,340,2013-11-24 22:15:00
5:35 PM,30.2,-0.4,27,30.47,10.0,NW,6.9,-,N/A,,Clear,320,2013-11-24 22:35:00
5:55 PM,30.2,-0.4,27,30.48,10.0,NNW,6.9,-,N/A,,Clear,340,2013-11-24 22:55:00
6:15 PM,30.2,-2.2,25,30.49,10.0,North,9.2,-,N/A,,Clear,350,2013-11-24 23:15:00
6:35 PM,30.2,-0.4,27,30.49,10.0,NNE,6.9,-,N/A,,Clear,20,2013-11-24 23:35:00
6:55 PM,30.2,-0.4,27,30.50,10.0,North,6.9,-,N/A,,Clear,350,2013-11-24 23:55:00
7:15 PM,30.2,1.4,29,30.51,10.0,NNW,5.8,-,N/A,,Clear,330,2013-11-25 00:15:00
7:35 PM,28.4,1.4,31,30.51,10.0,NNW,5.8,-,N/A,,Clear,340,2013-11-25 00:35:00
7:55 PM,28.4,1.4,31,30.51,10.0,NNW,4.6,-,N/A,,Clear,340,2013-11-25 00:55:00
8:15 PM,28.4,1.4,31,30.51,10.0,NNW,4.6,-,N/A,,Clear,330,2013-11-25 01:15:00
8:35 PM,28.4,1.4,31,30.52,10.0,NNW,4.6,-,N/A,,Clear,340,2013-11-25 01:35:00
8:55 PM,28.4,-0.4,29,30.53,10.0,NNW,3.5,-,N/A,,Clear,330,2013-11-25 01:55:00
9:15 PM,28.4,-0.4,29,30.54,10.0,North,3.5,-,N/A,,Clear,350,2013-11-25 02:15:00
9:35 PM,26.6,5.0,40,30.54,10.0,Calm,Calm,-,N/A,,Clear,0,2013-11-25 02:35:00
9:55 PM,26.6,5.0,40,30.54,10.0,Calm,Calm,-,N/A,,Clear,0,2013-11-25 02:55:00
10:15 PM,24.8,3.2,40,30.55,10.0,Calm,Calm,-,N/A,,Clear,0,2013-11-25 03:15:00
10:35 PM,24.8,3.2,40,30.55,10.0,NE,4.6,-,N/A,,Clear,40,2013-11-25 03:35:00
10:55 PM,24.8,5.0,43,30.54,10.0,East,4.6,-,N/A,,Clear,90,2013-11-25 03:55:00
11:15 PM,23.0,6.8,50,30.54,10.0,NE,4.6,-,N/A,,Clear,40,2013-11-25 04:15:00
11:35 PM,24.8,5.0,43,30.54,10.0,Calm,Calm,-,N/A,,Clear,0,2013-11-25 04:35:00
11:55 PM,23.0,3.2,43,30.54,10.0,East,3.5,-,N/A,,Clear,80,2013-11-25 04:55:00